Regional Weather Roundup
Issued by NWS

Home | Current Version | Previous Version | Text Only | Print | Product List | Glossary Off
Versions: 1 2 3 4 5 6 7 8 9 10 11 12 13 14 15 16 17 18 19 20 21 22 23 24 25 26 27 28 29 30 31 32 33 34 35 36 37 38 39 40 41 42 43 44 45 46 47 48 49 50

716
ASUS44 KLIX 291010
RWRLA
LOUISIANA WEATHER ROUNDUP
NATIONAL WEATHER SERVICE NEW ORLEANS LA
400 AM CST THU JAN 29 2015

NOTE: "FAIR" INDICATES FEW OR NO CLOUDS BELOW 12,000 FEET WITH NO
      SIGNIFICANT WEATHER AND/OR OBSTRUCTIONS TO VISIBILITY.
      SKY/WX - SKY CONDITION AND SIGNIFICANT WEATHER.
      TMP - AIR TEMPERATURE.    DP   - DEWPOINT TEMPERATURE.
      RH  - RELATIVE HUMIDITY.  PRES - PRESSURE.
      HX  - HEAT INDEX.         WCI  - WIND CHILL INDEX.

*  THESE STATIONS ARE NOT NWS OR FAA STATIONS AND ARE NOT UNDER
   NWS QUALITY CONTROL.

LAZ040-048-061>063-065-066-069-291100-
SOUTHEAST LOUISIANA

CITY           SKY/WX    TMP DP  RH WIND       PRES   REMARKS
N.O. AUDUBON   NOT AVBL
N.O. INTL ARPT PTCLDY    48  43  82 CALM      30.22F
N.O. LAKEFRONT CLEAR     50  46  86 SE6       30.23F
N.O. DOWNTOWN* NOT AVBL
SLIDELL        CLEAR     38  36  92 CALM      30.22F
BATON ROUGE    CLEAR     41  38  89 E6        30.21F
BOOTHVILLE     CLEAR     49  46  90 E3        30.25R
BELLE CHASSE   FAIR      41  37  87 CALM      30.23S
BOGALUSA*        N/A     37  35  90 CALM      30.25R
GALLIANO*      CLOUDY    42  41  98 MISG      30.24S
NEW ROADS*     FAIR      45  44  95 SE5       30.20F
GONZALES*      FAIR      44  44 100 CALM      30.22S
HAMMOND*       CLEAR     39  37  93 CALM      30.25R
HOUMA*         FOG       41  41 100 CALM      30.23S VSB 1/4
PORT FOURCHON* SUNNY     63  57  82 SE5       30.26R

$$

LAZ041-044-053-054-291100-
SOUTHWEST LOUISIANA

CITY           SKY/WX    TMP DP  RH WIND       PRES   REMARKS
LAKE CHARLES   FOG       52  52 100 S3        30.17F VSB 1/4
LAFAYETTE      CLEAR     50  49  96 S5        30.20F
PATTERSON      CLEAR     48  46  93 CALM      30.23S
SALT POINT       N/A     54  53  97 SE6       30.21S
NEW IBERIA     CLEAR     49  48  97 S5        30.20F FOG
CHENAULT AIRPK NOT AVBL

$$

LAZ027-028-291100-
CENTRAL LOUISIANA

CITY           SKY/WX    TMP DP  RH WIND       PRES   REMARKS
FORT POLK      CLOUDY    55  55  97 S7        30.17S FOG
ALEXANDRIA INT CLOUDY    55  53  93 S7        30.17S
ALEXANDRIA     CLOUDY    54  50  86 SW3       30.19R

$$

LAZ001-002-291100-
NORTHWEST LOUISIANA

CITY           SKY/WX    TMP DP  RH WIND       PRES   REMARKS
SHREVEPORT     PTCLDY    55  51  86 S7        30.10S
BARKSDALE AFB  CLEAR     47  47  99 S7        30.11S
DTN SHREVEPORT PTCLDY    54  49  83 S9        30.11S

$$

LAZ014-016-291100-
NORTHEAST LOUISIANA

CITY           SKY/WX    TMP DP  RH WIND       PRES   REMARKS
MONROE         MOCLDY    53  47  79 S8        30.15R
TALLULAH       CLEAR     50  41  71 S10       30.16F

$$




USA.gov is the U.S. government's official web portal to all federal, state and local government web resources and services.